Weather Roundup
Issued by NWS Chicago, IL

Home | Current Version | Previous Version | Text Only | Print | Product List | Glossary Off
Versions: 1 2 3 4 5 6 7 8 9 10 11 12 13 14 15 16 17 18 19 20 21 22 23 24 25 26 27 28 29 30 31 32 33 34 35 36 37 38 39 40 41 42 43 44 45 46 47 48 49 50

000
NZUS59 KLOT 302000
HRRLOT

CHICAGO AREA WEATHER ROUNDUP
NATIONAL WEATHER SERVICE CHICAGO/ROMEOVILLE IL
300 PM CDT TUE SEP 30 2014

NOTE: "FAIR" INDICATES FEW OR NO CLOUDS BELOW 12,000 FEET WITH NO
SIGNIFICANT WEATHER AND/OR OBSTRUCTIONS TO VISIBILITY.

* THESE STATIONS ARE NOT UNDER NWS QUALITY CONTROL. THEY ALSO MAY NOT
  REPORT WEATHER SUCH AS PRECIPITATION OR FOG.

ILZ005-006-012>014-019>023-302100-
NORTHEAST ILLINOIS

CITY           SKY/WX    TMP DP  RH WIND       PRES   REMARKS
OHARE          PTSUNNY   55  46  71 NE13      30.03S
MIDWAY         NOT AVBL
AURORA         MOSUNNY   60  46  59 NE15      30.01F
LANSING*       CLOUDY    57  49  75 NE10G16   30.02S
WAUKEGAN       NOT AVBL
DUPAGE AIRPORT CLOUDY    58  46  64 NE10      30.02S
WHEELING       CLOUDY    57  46  66 NE10      30.03F
NORTHERLY IS     N/A     55  49  80 N13         N/A
$$

WIZ051-052-058>065-066-070>072-302100-
SOUTHEAST WISCONSIN

CITY           SKY/WX    TMP DP  RH WIND       PRES   REMARKS
MILWAUKEE      PTSUNNY   54  45  71 N18G24    30.05F
KENOSHA*       PTSUNNY   54  46  74 NE10      30.04F
RACINE*        CLOUDY    53  46  77 N14       30.06F
WAUKESHA       CLOUDY    52  43  71 N6        30.05F
$$

INZ001>003-010>013-019-020-302100-
NORTHWEST INDIANA

CITY           SKY/WX    TMP DP  RH WIND       PRES   REMARKS
GARY*          LGT RAIN  55  52  88 N12G23    30.03S
MICHIGAN CITY* NOT AVBL
RENSSELAER*    NOT AVBL
$$

LMZ740>746-302100-
SOUTHERN LAKE MICHIGAN

STATION/POSITION TIME  SKY/WX   TEMP WIND        PRES    VSBY
                                AIR  DIR/SP/G
                 (UTC)          (F)  (DEG/KT/KT) (MB)    (MI)
HARRISON CRIB    1900            54  360/ 12/ 15   N/A
BURNHAM HARBOR   2000            56  360/ 10/ 15   N/A
CALUMET HARBOR   1900            56  360/ 10/ 15 1015.4F
BURNS HARBOR     NOT AVBL
MICHIGAN CITY    1900            55  360/ 15/ 19   N/A
$$

ABBREVIATIONS USED IN REMARKS
   TC - TEMPERATURE IN CELSIUS
  WCI - WIND CHILL INDEX
   HX - HEAT INDEX
  VSB - VISIBILITY
$$


USA.gov is the U.S. government's official web portal to all federal, state and local government web resources and services.